Grand Canyon, AZ

2:22 AM MST on August 27, 2016 (GMT -0700)
Grand Canyon National Park

Weather History for KGCN - May, 2014

Change the Weather History Date:

Wednesday, May 14, 2014

  Actual Average Record
Temperature  
Mean Temperature 44 °F -  
Max Temperature 64 °F 69 °F 82 °F (1976)
Min Temperature 24 °F 29 °F 24 °F (2014)
Degree Days  
Heating Degree Days 21    
Moisture  
Dew Point 7 °F    
Average Humidity 22    
Maximum Humidity 46    
Minimum Humidity 11    
Precipitation  
Precipitation 0.00 in - - ()
Sea Level Pressure  
Sea Level Pressure 30.32 in    
Wind  
Wind Speed 9 mph (ENE)    
Max Wind Speed 20 mph    
Max Gust Speed 30 mph    
Visibility 10 miles    
Events      
Averages and records for this station are not official NWS values.
T = Trace of Precipitation, MM = Missing Value Source: NWS Daily Summary

Daily Weather History Graph

Daily Weather History Graph

Search for Another Location

Airport or City:

Trip Planner

Search our weather history database for the weather conditions in past years. The results will help you decide how hot, cold, wet, or windy it might be!

Date:

Astronomy

May. 14, 2014 Rise Set
Actual Time 5:23 AM MST 7:26 PM MST
Civil Twilight 4:55 AM MST 7:55 PM MST
Nautical Twilight 4:20 AM MST 8:29 PM MST
Astronomical Twilight 3:43 AM MST 9:07 PM MST
Moon 7:36 PM MST (5/14) 5:23 AM MST (5/14)
Length of Visible Light 14h 59m
Length of Day
14h 02m
Full, 100% of the Moon is Illuminated
May 14
Full
May 14
Full
May 21
Last Quarter
May 28
New
Jun 5
First Quarter

Hourly Weather History & Observations

Time (MST) Temp. Windchill Dew Point Humidity Pressure Visibility Wind Dir Wind Speed Gust Speed Precip Events Conditions
12:54 AM 43.0 °F 37.2 °F 3.0 °F 19% 30.33 in - ENE 10.4 mph - N/A   Clear
1:54 AM 28.0 °F - 3.0 °F 34% 30.38 in - Calm Calm - N/A   Clear
2:54 AM 26.1 °F 21.9 °F 3.0 °F 37% 30.39 in - ENE 3.5 mph - N/A   Clear
3:54 AM 24.1 °F - 6.1 °F 46% 30.39 in - Calm Calm - N/A   Clear
4:54 AM 41.0 °F 34.3 °F 8.1 °F 26% 30.31 in - ENE 11.5 mph - N/A   Clear
5:54 AM 41.0 °F 34.3 °F 8.1 °F 26% 30.32 in - ENE 11.5 mph - N/A   Clear
6:54 AM 46.0 °F 41.4 °F 9.0 °F 22% 30.33 in 10.0 mi ENE 9.2 mph - N/A   Clear
8:54 AM 52.0 °F - 8.1 °F 17% 30.39 in - ENE 12.7 mph 24.2 mph N/A   Clear
9:54 AM 54.0 °F - 10.0 °F 17% 30.39 in 10.0 mi NE 17.3 mph 26.5 mph N/A   Clear
10:54 AM 57.0 °F - 8.1 °F 14% 30.41 in 10.0 mi NE 19.6 mph 26.5 mph N/A   Clear
11:54 AM 59.0 °F - 9.0 °F 14% 30.36 in - NE 17.3 mph 27.6 mph N/A   Clear
12:54 PM 61.0 °F - 6.1 °F 11% 30.28 in 10.0 mi NE 19.6 mph 24.2 mph N/A   Clear
1:54 PM 62.1 °F - 6.1 °F 11% 30.33 in 10.0 mi NE 11.5 mph 29.9 mph N/A   Clear
2:54 PM 63.0 °F - 8.1 °F 11% 30.30 in 10.0 mi ENE 16.1 mph 23.0 mph N/A   Clear
3:54 PM 64.0 °F - 8.1 °F 11% 30.30 in 10.0 mi Variable 5.8 mph - N/A   Clear
4:54 PM 63.0 °F - 8.1 °F 11% 30.22 in - ESE 6.9 mph - N/A   Clear
5:54 PM 63.0 °F - 9.0 °F 12% 30.22 in 10.0 mi ENE 10.4 mph - N/A   Clear
6:54 PM 61.0 °F - 9.0 °F 13% 30.20 in - Variable 5.8 mph - N/A   Clear
7:54 PM 46.9 °F - 9.0 °F 21% 30.26 in - NE 5.8 mph - N/A   Clear
8:54 PM 41.0 °F 38.0 °F 7.0 °F 25% 30.28 in - NE 4.6 mph - N/A   Clear
9:54 PM 37.0 °F 34.5 °F 8.1 °F 30% 30.30 in - East 3.5 mph - N/A   Clear
10:54 PM 34.0 °F - 7.0 °F 32% 30.30 in - Calm Calm - N/A   Clear
11:54 PM 30.9 °F - 7.0 °F 37% 30.30 in - Calm Calm - N/A   Clear